Regional Weather Roundup
Issued by NWS Sioux Falls, SD

Home | Current Version | Previous Version | Graphics & Text | Print | Product List | Glossary On
Versions: 1 2 3 4 5 6 7 8 9 10 11 12 13 14 15 16 17 18 19 20 21 22 23 24 25 26 27 28 29 30 31 32 33 34 35 36 37 38 39 40 41 42 43 44 45 46 47 48 49 50
000
ASUS43 KFSD 280002
RWRFSD

WEATHER ROUNDUP FOR SE SOUTH DAKOTA/SW MINNESOTA/NW IOWA
NATIONAL WEATHER SERVICE SIOUX FALLS SD
600 PM CST THU NOV 27 2014

NOTE: "FAIR" INDICATES FEW OR NO CLOUDS BELOW 12,000 FEET WITH NO
SIGNIFICANT WEATHER AND OR OBSTRUCTIONS TO VISIBILITY.


SDZ038>040-050-052>070-280100-
SOUTHEAST SOUTH DAKOTA

CITY           SKY/WX    TMP DP  RH WIND       PRES   REMARKS
CHAMBERLAIN    NOT AVBL
HURON          CLOUDY    14   5  67 SE15G28   30.14F WCI  -1
6HR MIN TEMP:   8; 6HR MAX TEMP:  14;

MADISON        CLOUDY    10   3  72 MISG      30.17F
MITCHELL       CLOUDY    16   9  74 SE16      30.16F WCI   1
6HR MIN TEMP:  12; 6HR MAX TEMP:  16; 6HR PCP: TRACE;

SIOUX FALLS    CLOUDY    12   3  67 SE13      30.22F WCI  -3
6HR MIN TEMP:   6; 6HR MAX TEMP:  12;

WINNER         FAIR      30  18  60 SE12      29.99F WCI  20
YANKTON        CLOUDY    18   9  68 SE15G23   30.19F WCI   3
$$

MNZ071-072-080-081-089-090-097-098-280100-
SOUTHWEST MINNESOTA

CITY           SKY/WX    TMP DP  RH WIND       PRES   REMARKS
FAIRMONT       MOCLDY     0  -8  71 SE7       30.33F WCI -13
JACKSON        CLOUDY     5  -4  66 SE10      30.29F WCI -10
LUVERNE        CLOUDY    14   5  67 S12       30.25F WCI   0
MARSHALL       CLOUDY     7   0  72 SE13      30.25F WCI  -9
6HR MIN TEMP:   0; 6HR MAX TEMP:   7;

MONTEVIDEO     CLOUDY     5  -2  72 S12       30.30F WCI -11
PIPESTONE      CLOUDY    10   3  72 S12       30.19F WCI  -4
REDWOOD FALLS  CLOUDY     2  -4  76 SE14      30.33F WCI -16
TRACY          CLOUDY    10   2  69 SE12      30.27F WCI  -5
WINDOM         CLOUDY     3  -4  72 SE10      30.29F WCI -12
WORTHINGTON    CLOUDY     9   1  72 SE14      30.24F WCI  -8
$$

IAZ001>003-012>014-020>022-031-032-NEZ013-014-SDZ071-280100-
NORTHWEST IOWA

CITY           SKY/WX    TMP DP  RH WIND       PRES   REMARKS
DENISON        CLOUDY    14   5  67 SE8G15    30.30S WCI   3
ESTHERVILLE    CLOUDY     2  -3  80 SE10      30.32F WCI -14
SIOUX CITY     MOCLDY    19   8  62 SE15      30.29S WCI   5
6HR MIN TEMP:  12; 6HR MAX TEMP:  20;

SPENCER        CLOUDY     7  -1  70 SE13      30.30F WCI  -9
6HR MIN TEMP:   2; 6HR MAX TEMP:   8;

$$

ABBREVIATIONS USED IN REMARKS
   TC - TEMPERATURE IN CELSIUS
  WCI - WIND CHILL INDEX
   HX - HEAT INDEX
  VSB - VISIBILITY



USA.gov is the U.S. government's official web portal to all federal, state and local government web resources and services.